Flag for Switzerland Weather past 2 weeks in Horw, Lucerne, Switzerland

Now
58 °F

Cool.


Feels Like: 58 °F
Forecast: 50 / 71 °F
Wind: No wind

Location: Giswil

Current Time: Oct 1, 2014 at 8:22:44 PM

Latest Report: Oct 1, 2014 at 7:00 PM


Visibility: N/A

Pressure: 30.31 "Hg

Humidity: 98%

Dew point: 58 °F

Location of HorwLocation

Historic Weather in Horw — Graph

°F

Horw temperature yesterday

Maximum temperature yesterday: 63 °F (at 1:00 PM)
Minimum temperature yesterday: 56 °F (at 1:00 AM)
Average temperature yesterday: 59 °F

Past Weeks' High & Low Weather Summary

 TemperatureHumidityPressure
High74 °F (Sep 17, 5:00 PM)100% (Sep 17, 6:00 AM)30.37 "Hg (Sep 17, 6:00 AM)
Low41 °F (Sep 24, 7:00 AM)49% (Sep 21, 2:00 PM)29.81 "Hg (Sep 17, 5:00 PM)
Average57 °F86%30.14 "Hg
* Reported Sep 16 7:00 PM — Oct 1 7:00 PM, Horw, Weather by CustomWeather, © 2014

Note: Actual official high and low records may vary slightly from our data, if they occured in-between our weather recording intervals... More about our weather records

Advertising

Horw weather history for previous 24 hours

 ConditionsComfort  
Time TempWeatherWind HumidityBarometerVisibility
7:00 PM
Oct 1
58 °FCool.No wind98%30.31 "HgN/A
6:00 PM64 °FMild.1 mph84%30.29 "HgN/A
5:00 PM64 °FMild.1 mph81%30.29 "HgN/A
4:00 PM63 °FMild.2 mph87%30.31 "HgN/A
3:00 PM61 °FCool.No wind94%30.32 "HgN/A
2:00 PM62 °FCool.1 mph91%30.32 "HgN/A
1:00 PM61 °FCool.1 mph91%30.33 "HgN/A
12:00 PM60 °FCool.1 mph96%30.33 "HgN/A
11:00 AM60 °FCool.2 mph95%30.32 "HgN/A
10:00 AM59 °FCool.No wind100%30.32 "HgN/A
9:00 AM57 °FCool.No wind100%30.32 "HgN/A
8:00 AM56 °FCool.1 mph100%30.31 "HgN/A
7:00 AM56 °FCool.2 mph100%30.31 "HgN/A
6:00 AM56 °FCool.1 mph100%30.31 "HgN/A
5:00 AM55 °FCool.1 mph100%30.32 "HgN/A
4:00 AM53 °FCool.1 mph100%30.32 "HgN/A
3:00 AM56 °FCool.1 mph100%30.32 "HgN/A
2:00 AM56 °FCool.No wind100%30.32 "HgN/A
1:00 AM56 °FCool.No wind100%30.32 "HgN/A
12:00 AM58 °FCool.No wind100%30.32 "HgN/A
11:00 PM
Sep 30
58 °FCool.No wind100%30.33 "HgN/A
10:00 PM59 °FCool.1 mph100%30.33 "HgN/A
9:00 PM59 °FCool.1 mph100%30.33 "HgN/A
8:00 PM59 °FCool.No wind100%30.32 "HgN/A
Weather by CustomWeather, © 2014

See weather overviewHow to use our weather pages